[[{"header":{"parameterUnit":"m.s-1","parameterCategory":1,"la1":30.2991,"la2":30.254,"lo1":-89.0895,"lo2":-89.0444,"dy":0.0017,"dx":0.0017,"nx":28,"ny":28,"refTime":"2025-04-18T03:00:00:Z","depth":0,"parameterNumber":2,"parameterNumberName":"U-component_of_WINDS"},"data":[0,0,0,0,0,0,0,0,0,0,0,0,0,0,0,0,0,0,0,0,0,0,0,0,0,0,0,0,0,0,0,0,0,0,0,0,0,0,0,0,0,0,0,0,0,0,0,0,0,0,0,0,0,0,0,0,0,0,-1.7845,-1.7846,0,-1.7915,-1.7916,-1.7916,-1.7933,-1.7932,-1.7932,-1.7932,-1.8005,-1.8007,-1.801,0,0,0,0,0,0,0,0,0,0,0,0,0,-1.7728,-1.773,-1.7845,-1.7846,-1.7847,-1.7915,-1.7916,-1.7917,-1.7933,-1.7932,-1.7932,-1.7931,-1.8004,-1.8007,-1.801,0,0,0,0,0,0,0,0,0,0,0,0,0,-1.7787,-1.7731,-1.7845,-1.7863,-1.7865,-1.7914,-1.7916,-1.7917,-1.7933,-1.7932,-1.7932,-1.7931,-1.8003,-1.8007,-1.801,-1.8047,0,0,-1.8021,-1.8023,0,0,0,0,0,0,0,0,-1.7783,-1.7791,-1.7859,-1.7862,-1.7864,-1.7914,-1.7901,-1.7961,-1.7933,-1.7907,-1.7932,-1.7931,-1.7976,-1.7981,-1.7996,-1.805,-1.8054,-1.8022,-1.8024,-1.8026,-1.8027,0,0,0,0,0,0,0,-1.7779,-1.7788,-1.7873,-1.786,-1.7864,-1.7868,-1.7876,-1.7913,-1.7945,-1.791,-1.7911,-1.7919,-1.7977,-1.7993,-1.7998,-1.8055,-1.8022,-1.8025,-1.8027,-1.8029,-1.8143,-1.8144,0,0,0,0,0,0,-1.7772,-1.7784,-1.787,-1.7875,-1.7821,-1.7871,-1.788,-1.7899,-1.7944,-1.7951,-1.7919,-1.7919,-1.7987,-1.7994,-1.8001,-1.8047,-1.8025,-1.8029,-1.8031,-1.8142,-1.8144,-1.8145,0,0,0,0,0,0,-1.7769,-1.7779,-1.7868,-1.783,-1.7842,-1.7874,-1.7896,-1.7901,-1.7917,-1.7952,-1.7958,-1.793,-1.7987,-1.7996,-1.8035,-1.805,-1.803,-1.8034,-1.8141,-1.8143,-1.8144,-1.8139,0,0,0,0,0,0,-1.7766,-1.7778,-1.7792,-1.783,-1.7844,-1.79,-1.7897,-1.7903,-1.7923,-1.7923,-1.7963,-1.7969,-1.7987,-1.803,-1.8039,-1.8054,-1.8037,-1.814,-1.8142,-1.8144,-1.8138,-1.814,-1.8142,0,0,0,0,0,-1.7761,-1.7788,-1.7792,-1.7803,-1.7861,-1.7901,-1.7909,-1.7928,-1.7924,-1.7938,-1.7961,-1.7968,-1.8047,-1.8034,-1.8044,-1.8061,-1.814,-1.8142,-1.8144,-1.8137,-1.814,-1.8142,0,0,0,0,0,0,-1.7751,-1.7793,-1.7799,-1.7838,-1.7866,-1.7904,-1.7922,-1.793,-1.796,-1.796,-1.7983,-1.7992,-1.8031,-1.805,-1.8035,-1.8099,-1.8093,-1.8097,-1.8085,-1.8088,-1.8089,-1.8084,-1.804,0,0,0,0,0,-1.7753,-1.7781,-1.7817,-1.7849,-1.7862,-1.789,-1.7908,-1.7921,-1.7951,-1.7963,-1.7988,-1.8018,-1.8049,-1.8069,-1.81,-1.8141,-1.815,-1.8158,-1.816,-1.8161,-1.8164,-1.8188,-1.8192,-1.8151,-1.8151,-1.8151,0,0,-1.7758,-1.7785,-1.7801,-1.7847,-1.787,-1.79,-1.79,-1.7931,-1.7953,-1.7968,-1.8006,-1.8026,-1.8061,-1.8101,-1.8121,-1.8119,-1.8178,-1.8164,-1.8164,-1.8167,-1.819,-1.8194,-1.8197,-1.8152,-1.8152,-1.8152,0,0,-1.7782,-1.7805,-1.7834,-1.7857,-1.7891,-1.791,-1.7917,-1.7954,-1.7967,-1.8007,-1.8018,-1.8046,-1.8099,-1.8123,-1.8143,-1.8177,-1.8184,-1.8186,-1.8196,-1.8218,-1.8221,-1.8224,-1.8237,-1.8241,-1.8189,-1.8189,-1.8189,0,-1.7785,-1.7828,-1.7848,-1.7879,-1.7899,-1.7913,-1.7943,-1.7964,-1.8007,-1.8021,-1.8018,-1.8086,-1.8111,-1.8157,-1.8165,-1.818,-1.819,-1.8182,-1.8219,-1.8222,-1.8226,-1.8238,-1.8242,-1.8189,-1.8189,-1.8189,-1.8189,0,-1.783,-1.786,-1.7879,-1.792,-1.7942,-1.7972,-1.7997,-1.8018,-1.8029,-1.8048,-1.8088,-1.8117,-1.8155,-1.8167,-1.8178,-1.8215,-1.8213,-1.8214,-1.8209,-1.8229,-1.8241,-1.8246,-1.8189,-1.8189,-1.8189,-1.8189,0,0,-1.7849,-1.79,-1.7907,-1.7925,-1.7965,-1.7989,-1.802,-1.8056,-1.8073,-1.8103,-1.813,-1.8175,-1.8177,-1.8199,-1.8213,-1.8233,-1.8258,-1.8232,-1.8233,-1.8236,-1.8302,-1.83,-1.8305,-1.8263,-1.8264,-1.8265,-1.8299,0,-1.7878,-1.7933,-1.7952,-1.7998,-1.8026,-1.804,-1.8068,-1.8095,-1.8114,-1.8142,-1.8163,-1.8194,-1.8194,-1.8207,-1.8228,-1.8251,-1.8272,-1.8249,-1.829,-1.8291,-1.828,-1.8311,-1.831,-1.834,-1.8304,-1.8304,-1.8305,0,-1.792,-1.7949,-1.7997,-1.8033,-1.8046,-1.807,-1.8105,-1.8131,-1.8162,-1.8175,-1.8199,-1.8212,-1.8246,-1.8238,-1.8286,-1.827,-1.8288,-1.8302,-1.8303,-1.8308,-1.8299,-1.8317,-1.8351,-1.8355,-1.8312,-1.8312,-1.8311,0,-1.7929,-1.7981,-1.8017,-1.8032,-1.8075,-1.8091,-1.811,-1.8141,-1.8162,-1.8192,-1.8206,-1.824,-1.8259,-1.8286,-1.8308,-1.83,-1.8354,-1.8348,-1.8365,-1.8365,-1.8376,-1.8375,-1.8413,-1.8387,-1.8387,-1.8387,-1.8387,0,-1.796,-1.7989,-1.8021,-1.8044,-1.8077,-1.8099,-1.8131,-1.8151,-1.8179,-1.8205,-1.822,-1.8245,-1.8272,-1.8301,-1.8319,-1.8356,-1.8364,-1.8375,-1.838,-1.8374,-1.8373,-1.8386,-1.8385,-1.8388,-1.8388,-1.8388,-1.8388,0,-1.7977,-1.7999,-1.8039,-1.8076,-1.8086,-1.8109,-1.8141,-1.8164,-1.8183,-1.8217,-1.8226,-1.8256,-1.8291,-1.8315,-1.836,-1.8372,-1.8412,-1.8416,-1.8401,-1.8403,-1.8419,-1.8418,-1.8467,-1.8475,-1.8444,-1.8444,-1.8445,0,-1.7995,-1.8017,-1.8057,-1.8075,-1.8093,-1.8123,-1.8144,-1.8167,-1.8188,-1.8226,-1.8244,-1.8279,-1.8309,-1.8364,-1.8391,-1.8425,-1.843,-1.8445,-1.8436,-1.8429,-1.8431,-1.8429,-1.8432,-1.8447,-1.8447,-1.8447,-1.8447,0,-1.8025,-1.8035,-1.8064,-1.8097,-1.8121,-1.8148,-1.8176,-1.819,-1.8218,-1.8241,-1.8276,-1.8299,-1.8345,-1.838,-1.8417,-1.8438,-1.8448,-1.845,-1.8456,-1.8451,-1.8441,-1.8447,-1.8405,-1.8449,-1.8449,-1.8449,-1.8449,-1.8449,-1.8043,-1.8064,-1.8095,-1.8127,-1.8149,-1.8175,-1.8198,-1.822,-1.8249,-1.8287,-1.8299,-1.8336,-1.8368,-1.8418,-1.8439,-1.8469,-1.8468,-1.8476,-1.8479,-1.848,-1.848,-1.8436,-1.8476,-1.8476,-1.8476,-1.8476,-1.8476,0,-1.8074,-1.8095,-1.8124,-1.8161,-1.8187,-1.8193,-1.8223,-1.8245,-1.8276,-1.8305,-1.8333,-1.8374,-1.8408,-1.8438,-1.8474,-1.8492,-1.8497,-1.85,-1.85,-1.8504,-1.8479,-1.847,-1.8495,-1.8495,-1.8495,-1.8495,-1.8495,-1.8495,-1.8094,-1.8129,-1.8143,-1.819,-1.8211,-1.8246,-1.8263,-1.8287,-1.831,-1.8354,-1.8383,-1.8401,-1.843,-1.8468,-1.8501,-1.8508,-1.8521,-1.8523,-1.8532,-1.8508,-1.8506,-1.8504,-1.8496,-1.8526,-1.8526,-1.8555,-1.8555,-1.8556]},{"header":{"parameterUnit":"m.s-1","parameterCategory":1,"la1":30.2991,"la2":30.254,"lo1":-89.0895,"lo2":-89.0444,"dy":0.0017,"dx":0.0017,"nx":28,"ny":28,"refTime":"2025-04-18T03:00:00:Z","depth":0,"parameterNumber":3,"parameterNumberName":"V-component_of_WINDS"},"data":[0,0,0,0,0,0,0,0,0,0,0,0,0,0,0,0,0,0,0,0,0,0,0,0,0,0,0,0,0,0,0,0,0,0,0,0,0,0,0,0,0,0,0,0,0,0,0,0,0,0,0,0,0,0,0,0,0,0,5.92,5.9201,0,5.9333,5.9334,5.9336,5.9304,5.9302,5.9299,5.9297,5.9426,5.9431,5.9437,0,0,0,0,0,0,0,0,0,0,0,0,0,5.8912,5.8917,5.92,5.9201,5.9203,5.9332,5.9334,5.9336,5.9305,5.9302,5.9298,5.9296,5.9424,5.9431,5.9438,0,0,0,0,0,0,0,0,0,0,0,0,0,5.904,5.8919,5.9199,5.9203,5.9205,5.9332,5.9334,5.9336,5.9305,5.9301,5.9298,5.9294,5.9422,5.943,5.9439,5.9568,0,0,5.9465,5.9469,0,0,0,0,0,0,0,0,5.9032,5.905,5.9201,5.9203,5.9205,5.9298,5.928,5.9414,5.9306,5.9267,5.9297,5.9292,5.9386,5.9397,5.943,5.9574,5.958,5.9466,5.9471,5.9475,5.9477,0,0,0,0,0,0,0,5.9024,5.9044,5.9252,5.9203,5.9206,5.9196,5.921,5.9305,5.9346,5.927,5.9268,5.9285,5.9386,5.9422,5.9433,5.9582,5.9466,5.9473,5.9479,5.9482,5.9836,5.984,0,0,0,0,0,0,5.9014,5.9037,5.9248,5.9256,5.9108,5.9204,5.922,5.9272,5.9345,5.9352,5.9288,5.9283,5.9409,5.9423,5.9437,5.9593,5.9475,5.9483,5.9488,5.9832,5.9837,5.9842,0,0,0,0,0,0,5.9008,5.9033,5.9242,5.9146,5.9172,5.9213,5.9272,5.9277,5.9312,5.9358,5.9364,5.9317,5.9407,5.9425,5.9536,5.9597,5.9487,5.9495,5.9827,5.9834,5.9839,5.9905,0,0,0,0,0,0,5.9,5.9031,5.9083,5.9148,5.9177,5.9341,5.9276,5.9282,5.9328,5.9323,5.9388,5.9395,5.9405,5.9523,5.9545,5.9607,5.9502,5.9822,5.983,5.9837,5.9898,5.9913,5.9926,0,0,0,0,0,5.899,5.9095,5.9085,5.9111,5.9243,5.9345,5.9362,5.9374,5.9333,5.9384,5.9413,5.9392,5.9587,5.9535,5.9559,5.9624,5.9818,5.9828,5.9837,5.9891,5.991,5.9926,0,0,0,0,0,0,5.9033,5.9103,5.9094,5.9224,5.9279,5.9339,5.9404,5.9393,5.9459,5.9451,5.9461,5.9475,5.9588,5.9617,5.9558,5.9753,5.9696,5.9711,5.973,5.9748,5.9761,5.9752,5.9509,0,0,0,0,0,5.9059,5.9138,5.9194,5.9302,5.9331,5.9363,5.9408,5.9412,5.9469,5.9491,5.9529,5.9582,5.9655,5.9703,5.9773,5.9902,5.9914,5.9959,5.9973,5.9984,5.9996,6.0065,6.0085,5.9873,5.9873,5.9872,0,0,5.911,5.9158,5.9207,5.9312,5.9356,5.9435,5.9383,5.9469,5.9527,5.9504,5.9611,5.964,5.97,5.9821,5.9875,5.9848,6.0058,5.9996,6.0005,6.0011,6.0077,6.0097,6.0115,5.9879,5.9878,5.9877,0,0,5.9246,5.9291,5.9386,5.9431,5.9498,5.9518,5.9541,5.9604,5.9623,5.9731,5.9715,5.9783,5.9909,5.9952,5.9991,6.0142,6.0125,6.0164,6.0238,6.0304,6.0321,6.0336,6.0388,6.0407,6.0176,6.0177,6.0177,0,5.9301,5.9423,5.9436,5.9524,5.957,5.9554,5.9649,5.9691,5.9777,5.9807,5.9776,5.9934,5.9973,6.0103,6.014,6.0172,6.0196,6.0157,6.0318,6.0333,6.0347,6.0397,6.0417,6.0181,6.018,6.018,6.018,0,5.9487,5.9571,5.9639,5.9725,5.9778,5.9869,5.9894,5.9946,5.9945,5.9968,6.0077,6.0124,6.0203,6.0234,6.0234,6.0363,6.0344,6.0316,6.0259,6.0371,6.0419,6.0438,6.0187,6.0186,6.0184,6.0183,0,0,5.9653,5.9745,5.9769,5.9807,5.988,5.9944,6.0033,6.0112,6.0156,6.0215,6.0288,6.0395,6.037,6.0413,6.0418,6.0477,6.0591,6.0441,6.0442,6.0466,6.0735,6.0755,6.0777,6.0581,6.0584,6.0587,6.0729,0,5.9794,5.9954,5.9968,6.0111,6.0188,6.0174,6.0251,6.0302,6.0326,6.0392,6.0417,6.0493,6.0454,6.048,6.0537,6.0565,6.0645,6.0555,6.0647,6.065,6.0632,6.0802,6.0824,6.0956,6.0748,6.0751,6.0753,0,5.998,6.0047,6.0198,6.0259,6.0291,6.0361,6.0434,6.0499,6.0556,6.0568,6.0618,6.0614,6.0703,6.0644,6.0765,6.0704,6.0742,6.0761,6.0766,6.0775,6.0708,6.0814,6.0998,6.1018,6.0783,6.078,6.0778,0,6.0084,6.0212,6.0319,6.0351,6.0426,6.0475,6.0507,6.0561,6.0607,6.067,6.07,6.0771,6.081,6.0864,6.0879,6.0835,6.1,6.0942,6.1011,6.1011,6.1046,6.1043,6.1238,6.1072,6.1072,6.1071,6.1071,0,6.024,6.0332,6.0367,6.0432,6.0535,6.0549,6.0649,6.0678,6.0726,6.0795,6.0786,6.0851,6.0867,6.0933,6.0945,6.1043,6.1061,6.1072,6.1074,6.1072,6.1071,6.1097,6.1088,6.1077,6.1075,6.1074,6.1074,0,6.0374,6.0401,6.0516,6.0577,6.0594,6.0667,6.0718,6.078,6.0802,6.0889,6.091,6.0945,6.1023,6.1043,6.1136,6.1143,6.1259,6.1252,6.124,6.124,6.1307,6.13,6.1524,6.1554,6.137,6.1371,6.1373,0,6.0471,6.0542,6.0611,6.0658,6.0693,6.0769,6.0816,6.0832,6.0881,6.0951,6.1004,6.1081,6.1144,6.1269,6.13,6.1371,6.1365,6.1439,6.1376,6.1372,6.1365,6.136,6.1367,6.1451,6.1453,6.1454,6.1456,0,6.064,6.0649,6.072,6.0795,6.0852,6.0911,6.0967,6.1005,6.1029,6.1084,6.1165,6.1214,6.1309,6.1385,6.1457,6.1487,6.1475,6.1476,6.1495,6.1494,6.1484,6.1489,6.1272,6.147,6.1469,6.1468,6.1467,6.1466,6.0757,6.082,6.0878,6.0956,6.1001,6.1053,6.1114,6.1145,6.1213,6.1294,6.1298,6.1385,6.1439,6.1533,6.1568,6.1635,6.1612,6.1641,6.1648,6.1654,6.166,6.1474,6.1648,6.1647,6.1647,6.1647,6.1646,0,6.0925,6.0962,6.1034,6.1114,6.1175,6.116,6.1221,6.1272,6.135,6.1402,6.1465,6.1557,6.163,6.1668,6.174,6.1786,6.1782,6.1805,6.1801,6.1808,6.1676,6.1652,6.1807,6.1807,6.1807,6.1807,6.1807,6.1807,6.1019,6.1123,6.114,6.1265,6.1301,6.1388,6.1424,6.1472,6.1513,6.1617,6.1679,6.1704,6.175,6.1825,6.1891,6.19,6.1927,6.1952,6.1958,6.1834,6.1817,6.1802,6.1779,6.1958,6.1958,6.2084,6.2085,6.2086]}]]